Location: Borowce
(50.8255°N, 19.6209°E)
Time: 22:53:17
(UTC+00:00)

Cosmos 1812 Rocket - Pass Details

Date: 19 May 2025
Orbit: 601 x 624 km, 82.5° (Epoch: 16 June)

Event Time Altitude Azimuth Distance (km) Brightness Sun altitude
Exits shadow 20:48:58 14° 204° (SSW) 1,712 5.5 -15.2°
Maximum altitude 20:52:37 61° 283° (WNW) 690 3.9 -15.5°
Drops below altitude 10° 20:56:55 10° 4° (N) 1,961 7.1 -15.8°
Sets 20:59:10 0° 8° (N) 2,871 8.0 -15.9°
